Theta_e
311 309 306 308 311 310 311 312 310 310 310 314 314 314 309 307 307 308 308 306 307 307 307 308 308 309 309 308 309 311 315 322 327 329 329 330 329 328 328 327 327 325 324 324
307 312 309 308 309 311 311 308 308 308 310 315 313 311 308 306 308 308 307 307 307 307 307 307 307 308 307 308 308 308 311 317 323 328 328 329 329 328 328 327 327 325 325 324
309 309 308 308 308 311 308 304 303 310 310 313 310 307 308 306 306 307 306 306 305 306 307 306 305 305 305 306 307 307 309 314 316 321 326 327 328 326 326 326 327 326 325 324
308 307 307 307 308 308 308 308 309 311 312 310 310 307 299 304 307 307 307 306 305 304 304 304 303 303 304 304 305 306 307 309 313 317 326 324 321 327 327 326 325 325 325 324
306 308 307 308 309 307 306 310 309 310 312 315 306 313 301 304 305 306 306 306 304 304 303 303 302 301 301 302 303 304 306 307 311 315 320 325 325 326 326 327 326 325 325 325
308 306 307 306 307 306 306 309 310 312 313 306 302 304 302 301 305 305 304 303 303 303 301 300 300 300 299 300 301 303 305 306 308 309 311 316 315 318 319 317 317 316 317 319
307 308 307 307 307 306 307 307 302 301 304 309 307 305 303 303 306 306 304 300 300 301 300 300 299 299 299 298 299 301 303 304 307 308 307 308 309 309 310 310 310 310 311 312
307 306 308 307 307 307 309 308 304 300 310 308 308 308 306 305 302 305 300 298 298 298 298 298 298 297 297 297 298 300 301 303 305 308 306 308 308 309 308 310 309 309 310 311
309 309 307 306 306 306 308 308 307 310 303 310 308 308 306 305 302 299 298 297 296 296 296 296 297 297 296 297 297 298 300 301 302 305 307 307 308 309 308 310 310 311 310 310
308 307 306 306 307 307 308 306 308 305 304 306 308 309 308 307 304 299 297 297 297 296 295 295 296 296 296 296 297 299 300 300 300 301 302 304 306 307 307 308 309 309 310 309
306 304 304 306 308 307 308 309 308 306 308 312 311 307 302 305 303 298 296 297 297 296 295 294 295 295 295 295 296 297 298 299 300 300 300 301 301 301 302 303 303 304 305 305
306 305 304 305 304 304 306 308 307 307 306 307 309 307 303 303 300 296 296 296 296 296 294 293 294 294 294 295 295 296 297 298 298 299 300 299 299 300 299 299 299 300 300 300
304 297 294 299 302 304 308 307 307 306 306 308 307 305 300 299 298 296 295 295 295 295 294 293 293 293 294 294 295 295 296 297 297 298 299 299 299 299 298 298 298 298 298 298
304 301 300 302 305 304 307 305 306 307 305 307 307 306 304 299 297 295 294 294 294 294 294 293 292 293 293 294 294 294 295 295 296 297 297 298 298 298 298 298 298 298 298 298
303 299 300 303 303 304 305 305 305 307 307 307 304 304 303 301 297 295 294 294 293 294 293 293 293 293 293 293 294 294 294 295 295 296 296 296 297 298 298 298 297 297 298 297
301 296 297 296 299 300 301 303 303 304 305 305 306 306 301 301 294 293 294 294 294 294 293 293 293 293 293 293 294 294 294 294 295 294 294 295 296 297 297 297 297 297 297 297
302 295 291 293 293 291 296 297 299 302 302 304 305 305 302 301 298 296 295 294 294 293 293 293 292 293 294 294 294 294 294 294 294 294 294 294 294 295 295 296 296 296 296 296
296 291 285 291 288 297 301 295 295 298 299 301 301 300 301 302 299 298 295 295 293 293 292 292 293 294 294 294 294 294 293 293 294 294 294 294 294 294 294 294 295 295 295 295
298 297 286 292 284 295 299 294 295 296 297 296 300 301 299 299 296 296 294 294 294 293 293 294 295 295 294 294 294 294 293 293 293 293 292 293 293 293 293 293 293 293 293 293
296 295 293 280 290 294 300 295 293 295 296 294 297 299 299 295 301 300 293 292 292 294 295 295 295 294 294 293 293 293 293 293 292 292 293 293 292 292 292 292 291 291 290 290
300 298 293 281 286 291 294 293 293 295 301 296 294 296 297 298 300 297 293 292 294 294 295 295 294 294 294 293 293 293 293 292 292 291 291 290 290 290 290 290 290 290 290 290
300 299 296 292 290 298 292 293 294 296 295 296 296 297 298 297 294 293 293 292 292 293 294 294 294 294 293 294 294 293 292 291 290 289 289 290 290 289 289 290 290 290 290 290
300 298 296 297 299 296 292 294 293 292 293 295 298 296 296 295 294 292 292 292 292 293 294 294 294 293 293 293 293 292 291 290 289 289 289 289 289 290 290 290 290 290 290 289
294 294 296 296 298 296 294 293 292 292 294 295 295 296 294 295 293 292 291 292 292 292 293 293 293 292 293 293 293 291 290 289 289 289 290 289 290 290 289 289 289 289 289 289
294 295 295 295 297 295 295 294 294 293 291 293 294 294 294 293 293 292 291 291 292 292 292 293 292 293 294 293 292 290 290 289 289 289 289 290 290 289 289 289 289 289 288 288
293 296 299 300 297 299 299 295 294 294 292 292 291 293 292 292 293 290 291 292 291 291 292 292 293 293 294 293 292 290 289 289 289 289 289 289 288 289 289 290 289 287 288 288
Wind_Speed
3 5 2 1 1 3 2 1 3 4 3 3 3 1 5 7 11 13 14 13 12 15 18 24 25 23 22 20 19 17 13 10 14 24 27 27 31 31 36 36 37 34 28 24
4 1 3 1 3 3 3 1 4 5 4 3 3 5 3 5 6 12 12 12 12 14 15 23 28 26 25 20 22 18 14 7 9 22 27 28 29 33 41 37 35 30 25 25
2 1 2 0 2 1 2 4 2 5 5 2 4 3 4 3 5 12 11 11 13 14 15 17 26 28 27 25 24 22 19 8 9 13 25 12 12 24 22 30 31 27 27 28
3 1 1 1 2 3 3 5 4 3 3 2 4 4 4 5 5 10 12 12 13 15 15 16 25 30 30 30 28 26 24 16 12 5 16 22 19 12 16 23 24 26 24 24
1 2 0 2 2 2 5 4 3 2 3 1 4 1 6 5 5 8 10 11 11 12 14 15 21 27 29 32 30 27 24 29 24 18 10 8 15 15 19 20 20 18 15 14
4 2 2 3 1 3 3 2 4 1 0 3 2 4 5 2 4 6 6 7 8 11 12 14 19 24 28 34 33 30 29 30 42 39 25 15 17 16 18 23 24 20 18 16
2 1 2 2 2 1 5 4 3 4 4 4 4 2 7 4 2 2 6 7 7 6 9 11 12 18 23 27 30 29 32 35 39 43 34 28 37 36 29 32 28 29 28 27
3 4 3 1 1 1 2 3 4 4 2 4 2 4 4 4 5 2 2 4 6 6 7 10 15 14 17 22 27 30 31 34 39 40 34 37 38 41 31 40 36 34 33 30
3 3 0 1 2 2 1 2 0 2 3 1 3 4 6 5 5 1 2 4 5 6 7 6 11 17 19 22 23 23 29 31 31 33 32 35 38 38 30 36 35 34 30 28
3 1 1 0 2 2 2 3 3 3 2 4 4 4 4 6 7 6 4 2 2 4 6 6 10 14 18 19 21 21 24 24 23 24 27 30 30 30 28 30 29 26 21 19
3 2 2 1 3 5 1 1 2 3 4 3 3 5 5 8 8 9 7 5 1 3 3 4 7 11 12 15 19 24 25 23 23 23 24 27 26 24 24 25 23 20 19 17
2 3 3 5 0 1 1 3 4 3 4 3 1 6 2 6 7 8 7 6 4 2 1 3 7 12 18 21 23 22 22 22 20 21 25 25 24 24 24 23 21 19 18 16
6 0 2 6 5 3 3 5 4 3 2 5 4 5 1 3 4 6 8 6 5 5 3 2 5 9 12 16 18 20 22 21 22 23 24 23 23 24 22 20 20 18 18 17
5 3 5 5 3 2 4 4 6 5 3 3 7 3 5 7 8 7 7 8 6 5 4 3 2 5 8 11 14 17 20 20 21 22 23 23 21 20 19 18 18 17 17 17
4 4 2 4 6 3 5 6 8 11 8 7 4 8 7 10 13 11 8 7 7 6 6 5 3 3 6 9 11 14 16 19 20 22 23 21 19 18 17 17 17 16 17 16
2 1 2 4 3 3 6 13 15 15 13 14 14 21 8 4 6 8 10 9 8 8 7 6 4 6 6 8 9 10 13 15 18 20 21 20 19 18 17 16 15 15 15 15
6 5 3 5 4 6 9 14 19 9 7 18 16 13 5 5 8 11 12 12 10 8 8 8 8 9 7 7 9 10 11 12 14 16 16 17 15 16 15 14 13 14 14 12
6 5 3 3 4 2 6 3 3 15 12 17 13 7 8 9 11 9 10 15 10 9 9 8 13 11 8 6 8 9 10 12 11 11 12 11 11 10 10 9 10 11 11 10
3 5 2 3 3 8 4 4 6 7 7 18 22 19 7 3 4 6 9 10 14 12 14 17 18 15 12 9 9 11 10 11 10 9 8 8 6 5 5 5 7 9 8 7
5 5 4 2 4 6 4 3 4 2 6 6 16 15 9 8 5 8 12 10 9 19 23 20 18 15 14 11 11 12 11 9 8 6 5 5 3 3 4 6 6 6 6 8
5 2 6 3 3 9 10 5 5 5 5 2 6 7 9 8 6 4 11 8 19 23 25 23 21 20 16 15 14 12 12 9 7 5 4 3 2 3 5 5 6 8 10 11
9 9 5 4 2 10 9 5 9 5 1 2 3 6 11 5 6 6 13 11 16 19 23 25 23 19 17 16 14 13 12 9 7 5 4 3 2 3 5 6 6 7 11 14
5 8 8 11 8 3 11 5 8 4 4 4 3 5 7 8 7 8 8 11 16 23 27 28 26 21 19 17 15 15 13 10 7 4 2 1 2 3 4 6 8 10 13 15
4 5 3 4 9 15 10 7 5 7 6 3 4 5 8 8 8 8 8 9 13 23 26 30 26 23 21 19 16 14 13 11 7 4 4 3 2 3 3 5 7 10 12 15
5 13 8 5 10 5 12 14 11 13 7 6 4 6 8 8 7 8 10 11 18 22 27 32 31 29 25 22 19 15 12 9 7 5 5 2 1 1 2 6 9 11 11 11
6 7 8 10 7 8 6 11 15 13 13 14 9 6 5 8 9 7 9 19 22 24 30 31 31 30 27 24 20 17 14 10 7 8 6 4 2 2 3 6 7 8 7 7
Wind_Direction
3 70 115 207 164 147 157 216 268 261 264 299 285 40 4 350 1 346 345 341 333 333 330 344 343 348 339 340 335 332 313 291 247 228 222 213 206 194 208 213 216 204 203 209
18 104 210 196 192 189 207 146 289 288 265 242 355 327 307 0 354 356 348 346 353 336 351 350 351 348 345 346 352 345 336 292 259 230 230 226 212 193 205 208 205 207 203 210
168 186 162 89 296 76 210 170 215 228 306 68 315 18 333 352 356 13 7 358 352 350 357 355 354 348 346 349 352 350 8 338 282 250 230 227 202 208 187 192 197 199 212 217
230 337 156 319 250 125 302 193 172 262 340 315 6 293 305 330 333 17 7 2 352 351 356 4 355 348 346 348 355 5 19 31 26 307 207 199 216 210 195 181 195 198 212 222
244 172 256 288 231 150 235 166 240 225 258 82 353 357 267 334 331 337 359 354 356 357 358 5 0 351 348 353 358 7 22 38 52 49 69 230 202 214 198 169 162 169 184 206
245 321 201 228 267 193 296 305 33 350 257 35 233 115 284 289 263 310 308 332 348 349 348 357 354 0 358 360 1 12 26 37 54 49 55 101 90 103 105 105 102 97 110 131
350 228 262 213 2 116 45 50 342 354 7 220 149 79 247 243 291 251 304 337 345 338 346 353 352 357 1 1 3 12 27 38 53 53 47 61 78 77 73 77 77 73 71 73
174 313 188 178 120 164 42 118 147 258 273 279 142 227 256 182 93 167 322 350 354 351 5 359 354 1 5 9 15 22 24 36 52 60 48 58 65 73 69 80 80 79 74 71
156 277 71 94 106 120 109 95 172 89 332 325 260 286 299 166 140 126 322 6 5 0 360 356 359 1 9 17 24 32 45 45 53 64 65 67 69 72 72 76 75 74 74 73
186 303 235 155 106 84 142 157 56 20 358 295 283 265 241 222 200 173 220 273 3 14 12 358 7 17 28 32 41 49 61 63 62 63 67 70 73 75 76 79 76 77 84 90
134 137 264 152 195 181 85 102 106 136 158 237 303 266 211 220 184 173 196 199 177 71 6 6 19 42 45 48 50 52 55 59 61 67 70 73 74 77 75 74 73 74 74 71
152 143 224 214 330 312 145 235 165 145 218 233 248 270 309 214 181 157 185 183 160 141 70 14 27 41 46 47 52 54 58 62 65 69 69 66 69 70 69 69 72 71 68 67
171 318 4 349 1 3 207 191 205 113 76 211 154 261 47 129 187 179 165 197 178 166 138 48 44 44 46 49 50 52 56 58 63 70 73 70 69 71 69 71 72 74 76 73
113 142 190 193 171 143 211 203 196 171 156 211 229 250 243 208 212 207 189 180 191 190 166 150 102 74 61 52 54 55 57 59 63 68 71 70 69 71 72 72 74 75 72 69
131 194 174 256 240 226 238 220 207 209 209 202 242 224 225 220 205 204 191 172 173 188 187 184 159 111 89 79 66 67 62 65 66 69 68 68 72 73 73 70 69 68 68 65
144 212 85 300 353 250 260 239 231 231 227 252 259 271 212 249 132 164 198 187 185 183 188 191 171 161 130 98 91 83 74 68 71 68 69 70 70 72 72 73 72 68 65 58
147 133 96 265 348 328 297 240 214 213 200 218 231 243 145 194 200 197 198 197 197 182 180 182 183 175 143 119 105 94 92 84 76 74 70 70 70 70 68 71 71 67 59 53
133 108 85 246 5 319 236 187 170 218 240 218 245 213 191 202 216 210 190 188 191 186 185 176 173 171 161 142 124 118 108 103 96 85 77 72 69 67 65 63 59 55 46 36
129 125 89 153 200 298 289 182 174 178 271 215 226 236 195 163 94 253 187 184 185 181 182 184 176 170 163 167 150 137 121 112 106 103 96 90 82 74 65 58 49 38 26 16
101 72 125 106 163 223 251 159 177 150 290 224 214 227 175 138 202 237 183 170 159 174 179 180 174 168 166 165 157 149 141 137 128 120 106 93 80 55 45 37 37 19 6 13
132 115 173 178 234 283 238 160 139 91 244 207 198 193 157 192 210 179 157 150 168 175 178 178 176 177 174 165 165 165 161 162 153 146 139 123 93 60 39 31 20 10 4 357
162 157 182 125 164 265 152 91 172 207 202 200 200 195 192 168 150 152 166 155 154 165 175 179 176 181 179 176 178 178 177 170 161 155 147 135 109 56 28 18 13 9 2 4
198 181 175 187 210 234 201 181 210 155 190 197 196 210 193 171 184 165 164 160 168 168 176 184 182 179 182 189 190 187 182 178 172 163 153 134 72 41 18 13 11 8 10 14
241 163 177 114 235 231 230 241 233 199 211 208 203 189 180 184 172 180 160 165 168 171 177 183 182 182 190 193 197 199 188 184 177 175 187 159 88 44 28 17 16 13 12 11
187 148 169 265 265 317 252 227 221 217 210 226 187 178 209 181 187 175 172 176 180 179 183 186 186 187 196 197 197 197 200 198 181 199 192 169 116 353 6 22 17 17 19 9
193 171 175 215 189 191 236 208 202 201 202 217 191 204 204 191 191 169 185 184 179 182 186 190 193 195 195 198 201 204 204 204 194 206 207 204 220 280 348 18 32 23 16 359